When you browse on this site, cookies collect data to enhance your experience and personalize the content and advertising you see.
Visit our Privacy Policy to learn more. By continuing to use the site, you agree to this use of cookies and data.

Hourly Weather Gor-Apole

Today, 6 August, Thursday

Time Temperature Precipitation Wind Pressure Humidity
00:00 +18°C° 0 mm 2 mps 748 mmHg 96%
01:00 +18°C° 0 mm 2 mps 748 mmHg 97%
02:00 +17°C° 0 mm 2 mps 749 mmHg 98%
03:00 +17°C° 0.1 mm 2 mps 749 mmHg 98%
04:00 +17°C° 0.1 mm 2 mps 749 mmHg 98%
05:00 +17°C° 0.1 mm 2 mps 749 mmHg 98%
06:00 +18°C° 0 mm 2 mps 750 mmHg 95%
07:00 +19°C° 0 mm 2 mps 750 mmHg 92%
08:00 +20°C° 0 mm 3 mps 751 mmHg 88%
09:00 +21°C° 0 mm 3 mps 751 mmHg 78%
10:00 +22°C° 0 mm 3 mps 751 mmHg 68%
11:00 +25°C° 0 mm 3 mps 751 mmHg 59%
12:00 +25°C° 0 mm 3 mps 751 mmHg 56%
13:00 +25°C° 0 mm 3 mps 752 mmHg 53%
14:00 +26°C° 0 mm 3 mps 752 mmHg 51%
15:00 +26°C° 0 mm 2 mps 752 mmHg 55%
16:00 +25°C° 0 mm 2 mps 752 mmHg 58%
17:00 +25°C° 0 mm 2 mps 752 mmHg 62%
18:00 +23°C° 0 mm 2 mps 752 mmHg 67%
19:00 +21°C° 0 mm 1 mps 752 mmHg 71%
20:00 +19°C° 0 mm 1 mps 752 mmHg 76%
21:00 +19°C° 0 mm 1 mps 752 mmHg 78%
22:00 +18°C° 0 mm 1 mps 753 mmHg 79%
23:00 +16°C° 0 mm 1 mps 753 mmHg 81%

Tomorrow, 7 August, Friday

Time Temperature Precipitation Wind Pressure Humidity
00:00 +16°C° 0 mm 1 mps 753 mmHg 83%
01:00 +15°C° 0 mm 1 mps 753 mmHg 85%
02:00 +15°C° 0 mm 1 mps 753 mmHg 87%
03:00 +15°C° 0 mm 1 mps 753 mmHg 88%
04:00 +15°C° 0 mm 1 mps 753 mmHg 89%
05:00 +14°C° 0 mm 1 mps 753 mmHg 90%
06:00 +16°C° 0 mm 1 mps 753 mmHg 84%
07:00 +18°C° 0 mm 2 mps 754 mmHg 78%
08:00 +20°C° 0 mm 2 mps 754 mmHg 72%
09:00 +21°C° 0 mm 2 mps 754 mmHg 68%
10:00 +23°C° 0 mm 2 mps 754 mmHg 64%
11:00 +25°C° 0 mm 2 mps 754 mmHg 60%
12:00 +25°C° 0 mm 2 mps 754 mmHg 60%
13:00 +25°C° 0 mm 2 mps 753 mmHg 60%
14:00 +26°C° 0 mm 2 mps 753 mmHg 61%
15:00 +25°C° 0.1 mm 2 mps 753 mmHg 65%
16:00 +25°C° 0.1 mm 2 mps 753 mmHg 69%
17:00 +24°C° 0.1 mm 2 mps 753 mmHg 73%
18:00 +23°C° 0.1 mm 2 mps 753 mmHg 78%
19:00 +20°C° 0.1 mm 2 mps 753 mmHg 82%
20:00 +20°C° 0.1 mm 1 mps 753 mmHg 87%
21:00 +19°C° 0 mm 1 mps 753 mmHg 89%
22:00 +18°C° 0 mm 1 mps 753 mmHg 91%
23:00 +18°C° 0 mm 1 mps 753 mmHg 94%

Day after tomorrow, 8 August, Saturday

Time Temperature Precipitation Wind Pressure Humidity
00:00 +16°C° 0 mm 1 mps 752 mmHg 94%
01:00 +16°C° 0 mm 1 mps 752 mmHg 95%
02:00 +15°C° 0 mm 1 mps 752 mmHg 95%
03:00 +15°C° 0 mm 1 mps 752 mmHg 95%
04:00 +15°C° 0 mm 1 mps 752 mmHg 96%
05:00 +15°C° 0 mm 1 mps 752 mmHg 96%
06:00 +18°C° 0 mm 1 mps 752 mmHg 90%
07:00 +19°C° 0 mm 1 mps 752 mmHg 85%
08:00 +21°C° 0 mm 1 mps 752 mmHg 79%
09:00 +22°C° 0 mm 1 mps 752 mmHg 73%
10:00 +24°C° 0 mm 1 mps 752 mmHg 67%
11:00 +25°C° 0 mm 1 mps 752 mmHg 61%
12:00 +26°C° 0.1 mm 1 mps 752 mmHg 61%
13:00 +26°C° 0.1 mm 1 mps 751 mmHg 61%
14:00 +26°C° 0.1 mm 1 mps 751 mmHg 60%
15:00 +26°C° 0.2 mm 1 mps 751 mmHg 65%
16:00 +25°C° 0.2 mm 2 mps 750 mmHg 70%
17:00 +25°C° 0.2 mm 2 mps 750 mmHg 75%
18:00 +23°C° 0.1 mm 2 mps 750 mmHg 80%
19:00 +21°C° 0.1 mm 2 mps 750 mmHg 84%
20:00 +19°C° 0.1 mm 2 mps 750 mmHg 89%
21:00 +18°C° 0 mm 2 mps 750 mmHg 90%
22:00 +18°C° 0 mm 2 mps 750 mmHg 92%
23:00 +18°C° 0 mm 1 mps 750 mmHg 93%

9 August, Sunday

Time Temperature Precipitation Wind Pressure Humidity
00:00 +18°C° 0 mm 1 mps 749 mmHg 94%
01:00 +16°C° 0 mm 2 mps 749 mmHg 95%
02:00 +16°C° 0 mm 2 mps 749 mmHg 95%
03:00 +16°C° 0 mm 2 mps 749 mmHg 96%
04:00 +16°C° 0 mm 1 mps 749 mmHg 96%
05:00 +16°C° 0 mm 1 mps 749 mmHg 96%
06:00 +17°C° 0 mm 2 mps 749 mmHg 91%
07:00 +19°C° 0 mm 2 mps 749 mmHg 87%
08:00 +20°C° 0 mm 2 mps 749 mmHg 82%
09:00 +23°C° 0.6 mm 2 mps 749 mmHg 78%
10:00 +24°C° 0.6 mm 2 mps 749 mmHg 75%
11:00 +25°C° 0.6 mm 2 mps 748 mmHg 71%
12:00 +25°C° 0.8 mm 2 mps 748 mmHg 70%
13:00 +26°C° 0.8 mm 2 mps 748 mmHg 69%
14:00 +26°C° 0.8 mm 2 mps 748 mmHg 68%
15:00 +26°C° 0.5 mm 2 mps 747 mmHg 71%
16:00 +25°C° 0.5 mm 1 mps 747 mmHg 74%
17:00 +25°C° 0.5 mm 1 mps 747 mmHg 77%
18:00 +23°C° 0.1 mm 1 mps 747 mmHg 81%
19:00 +22°C° 0.1 mm 1 mps 747 mmHg 85%
20:00 +20°C° 0.1 mm 1 mps 747 mmHg 89%
21:00 +20°C° 0.2 mm 1 mps 747 mmHg 90%
22:00 +19°C° 0.2 mm 1 mps 747 mmHg 91%
23:00 +19°C° 0.2 mm 1 mps 747 mmHg 93%

10 August, Monday

Time Temperature Precipitation Wind Pressure Humidity
00:00 +19°C° 0.1 mm 1 mps 747 mmHg 93%
01:00 +18°C° 0.1 mm 1 mps 747 mmHg 93%
02:00 +18°C° 0.1 mm 1 mps 747 mmHg 93%
03:00 +18°C° 0 mm 1 mps 747 mmHg 93%
04:00 +16°C° 0 mm 1 mps 747 mmHg 94%
05:00 +16°C° 0 mm 1 mps 747 mmHg 94%
06:00 +19°C° 0 mm 1 mps 747 mmHg 91%
07:00 +20°C° 0 mm 1 mps 747 mmHg 87%
08:00 +22°C° 0 mm 1 mps 747 mmHg 83%
09:00 +23°C° 0.3 mm 2 mps 747 mmHg 76%
10:00 +25°C° 0.3 mm 2 mps 747 mmHg 68%
11:00 +26°C° 0.3 mm 2 mps 747 mmHg 61%
12:00 +27°C° 0.2 mm 2 mps 747 mmHg 57%
13:00 +28°C° 0.2 mm 2 mps 747 mmHg 54%
14:00 +28°C° 0.2 mm 2 mps 746 mmHg 50%
15:00 +28°C° 0 mm 1 mps 746 mmHg 54%
16:00 +28°C° 0 mm 1 mps 746 mmHg 58%
17:00 +28°C° 0 mm 1 mps 746 mmHg 63%
18:00 +25°C° 0 mm 1 mps 746 mmHg 67%
19:00 +23°C° 0 mm 1 mps 746 mmHg 71%
20:00 +21°C° 0 mm 1 mps 746 mmHg 76%
21:00 +20°C° 0.4 mm 1 mps 746 mmHg 79%
22:00 +20°C° 0.4 mm 1 mps 746 mmHg 83%
23:00 +19°C° 0.4 mm 1 mps 746 mmHg 86%

11 August, Tuesday

Time Temperature Precipitation Wind Pressure Humidity
00:00 +18°C° 0.1 mm 1 mps 746 mmHg 88%
01:00 +18°C° 0.1 mm 1 mps 745 mmHg 89%
02:00 +18°C° 0.1 mm 1 mps 745 mmHg 91%
03:00 +18°C° 0.1 mm 1 mps 745 mmHg 91%
04:00 +18°C° 0.1 mm 1 mps 745 mmHg 92%
05:00 +18°C° 0.1 mm 1 mps 745 mmHg 92%
06:00 +19°C° 0 mm 1 mps 745 mmHg 89%
07:00 +20°C° 0 mm 1 mps 745 mmHg 86%
08:00 +21°C° 0 mm 2 mps 745 mmHg 84%
09:00 +23°C° 0.6 mm 2 mps 745 mmHg 80%
10:00 +24°C° 0.6 mm 2 mps 745 mmHg 76%
11:00 +25°C° 0.6 mm 2 mps 745 mmHg 72%
12:00 +25°C° 1.5 mm 2 mps 745 mmHg 73%
13:00 +25°C° 1.5 mm 2 mps 745 mmHg 73%
14:00 +25°C° 1.5 mm 2 mps 745 mmHg 74%
15:00 +25°C° 0.6 mm 2 mps 745 mmHg 77%
16:00 +24°C° 0.6 mm 3 mps 745 mmHg 80%
17:00 +22°C° 0.6 mm 3 mps 745 mmHg 83%
18:00 +21°C° 0.1 mm 3 mps 745 mmHg 87%
19:00 +20°C° 0.1 mm 2 mps 745 mmHg 90%
20:00 +18°C° 0.1 mm 2 mps 745 mmHg 94%
21:00 +17°C° 0 mm 2 mps 745 mmHg 95%
22:00 +17°C° 0 mm 2 mps 745 mmHg 96%
23:00 +16°C° 0 mm 2 mps 745 mmHg 96%
Show more